OCN64C EBBR-EDDB

Flight info

Callsign OCN64C
Flight time 0h 59m
Altitude 35000
Route SPI Y862 KENUM N853 ONUNE DCT LARBU DCT BATEL T207 OGBER OGBER1R
Aircraft A320/M-SDE3FGHIRWY/LB1

Departure

Time 2026-05-07 18:36
Airport Brussels Airport (EBBR)

Arrival

Time 2026-05-07 19:35
Airport Berlin Brandenburg Airport (EDDB)
Time Latitude Longitude Altitude Speed Heading
2026-05-07 18:13 50.90515 4.48952 121 ft 0 kts 155°
2026-05-07 18:24 50.90516 4.48952 121 ft 1 kts 155°
2026-05-07 18:25 50.90538 4.48935 117 ft 4 kts 152°
2026-05-07 18:25 50.90561 4.48913 116 ft 4 kts 143°
2026-05-07 18:25 50.90580 4.48885 117 ft 4 kts 114°
2026-05-07 18:25 50.90582 4.48858 118 ft 0 kts 65°
2026-05-07 18:29 50.90586 4.48872 118 ft 5 kts 65°
2026-05-07 18:29 50.90612 4.48963 118 ft 13 kts 65°
2026-05-07 18:29 50.90665 4.49095 120 ft 16 kts 24°
2026-05-07 18:29 50.90753 4.49174 118 ft 18 kts 66°
2026-05-07 18:30 50.90812 4.49378 122 ft 23 kts 65°
2026-05-07 18:30 50.90869 4.49575 120 ft 18 kts 65°
2026-05-07 18:30 50.90921 4.49758 118 ft 18 kts 65°
2026-05-07 18:30 50.91001 4.49883 118 ft 15 kts 31°
2026-05-07 18:31 50.91029 4.49905 118 ft 0 kts 23°
2026-05-07 18:33 50.91031 4.49906 119 ft 3 kts 23°
2026-05-07 18:33 50.91094 4.49941 120 ft 11 kts
2026-05-07 18:34 50.91135 4.49867 118 ft 19 kts 264°
2026-05-07 18:34 50.91113 4.49795 117 ft 0 kts 245°
2026-05-07 18:35 50.91085 4.49699 117 ft 39 kts 245°
2026-05-07 18:35 50.90865 4.48938 117 ft 108 kts 245°
2026-05-07 18:36 50.90477 4.47594 121 ft 157 kts 245°
2026-05-07 18:36 50.89980 4.45865 502 ft 173 kts 245°
2026-05-07 18:36 50.89479 4.44133 1206 ft 177 kts 245°
2026-05-07 18:36 50.88954 4.42363 1839 ft 181 kts 242°
2026-05-07 18:37 50.88174 4.40616 2178 ft 204 kts 225°
2026-05-07 18:37 50.86993 4.39208 2516 ft 228 kts 206°
2026-05-07 18:37 50.85535 4.38455 2929 ft 250 kts 187°
2026-05-07 18:37 50.83743 4.38600 3696 ft 259 kts 164°
2026-05-07 18:38 50.82000 4.39915 4708 ft 263 kts 141°
2026-05-07 18:38 50.80860 4.41881 5556 ft 266 kts 121°
2026-05-07 18:38 50.80204 4.44626 6479 ft 271 kts 99°
2026-05-07 18:38 50.80242 4.47625 6909 ft 277 kts 80°
2026-05-07 18:39 50.80561 4.50633 7056 ft 277 kts 83°
2026-05-07 18:39 50.80744 4.53669 7256 ft 280 kts 88°
2026-05-07 18:39 50.80755 4.56740 8169 ft 281 kts 93°
2026-05-07 18:39 50.80600 4.59843 9007 ft 285 kts 98°
2026-05-07 18:40 50.80262 4.62964 9832 ft 290 kts 103°
2026-05-07 18:40 50.79751 4.66042 10578 ft 294 kts 108°
2026-05-07 18:40 50.79039 4.69188 10969 ft 314 kts 113°
2026-05-07 18:40 50.78199 4.72506 11180 ft 338 kts 110°
2026-05-07 18:41 50.77458 4.76144 11482 ft 356 kts 109°
2026-05-07 18:41 50.76576 4.79856 12088 ft 362 kts 113°
2026-05-07 18:41 50.75633 4.83413 12771 ft 366 kts 114°
2026-05-07 18:41 50.74710 4.86665 13393 ft 370 kts 116°
2026-05-07 18:42 50.73623 4.90322 14064 ft 374 kts 117°
2026-05-07 18:42 50.72488 4.94030 14670 ft 378 kts 117°
2026-05-07 18:42 50.71351 4.97709 15277 ft 382 kts 117°
2026-05-07 18:42 50.70148 5.01612 15896 ft 386 kts 116°
2026-05-07 18:43 50.69284 5.05584 16463 ft 392 kts 101°
2026-05-07 18:43 50.69117 5.09883 17028 ft 396 kts 91°
2026-05-07 18:43 50.69113 5.14247 17606 ft 399 kts 90°
2026-05-07 18:43 50.69122 5.18606 18182 ft 403 kts 90°
2026-05-07 18:44 50.69138 5.22970 18686 ft 406 kts 90°
2026-05-07 18:44 50.69155 5.27501 19186 ft 409 kts 90°
2026-05-07 18:44 50.69166 5.31972 19673 ft 412 kts 90°
2026-05-07 18:44 50.69170 5.36478 20147 ft 415 kts 90°
2026-05-07 18:45 50.69168 5.41145 20647 ft 419 kts 90°
2026-05-07 18:45 50.69162 5.45680 20999 ft 421 kts 90°
2026-05-07 18:45 50.69155 5.50310 21075 ft 422 kts 90°
2026-05-07 18:45 50.69148 5.54921 21085 ft 421 kts 90°
2026-05-07 18:46 50.69139 5.59436 21082 ft 421 kts 91°
2026-05-07 18:46 50.69127 5.64166 21074 ft 421 kts 90°
2026-05-07 18:46 50.69115 5.68767 21077 ft 421 kts 90°
2026-05-07 18:46 50.69101 5.73379 21077 ft 421 kts 90°
2026-05-07 18:47 50.69087 5.78021 21079 ft 421 kts 90°
2026-05-07 18:47 50.69074 5.82566 21074 ft 421 kts 91°
2026-05-07 18:47 50.69056 5.87252 21074 ft 421 kts 91°
2026-05-07 18:47 50.69036 5.91840 21073 ft 421 kts 91°
2026-05-07 18:48 50.69014 5.96471 21073 ft 421 kts 91°
2026-05-07 18:48 50.68988 6.01093 21070 ft 421 kts 91°
2026-05-07 18:48 50.68961 6.05708 21070 ft 421 kts 91°
2026-05-07 18:48 50.69125 6.10283 21068 ft 421 kts 82°
2026-05-07 18:49 50.69752 6.14776 21073 ft 420 kts 72°
2026-05-07 18:49 50.70838 6.19057 21075 ft 419 kts 63°
2026-05-07 18:49 50.72319 6.23013 21087 ft 420 kts 54°
2026-05-07 18:49 50.74181 6.26589 21538 ft 422 kts 45°
2026-05-07 18:50 50.76311 6.29790 22027 ft 424 kts 41°
2026-05-07 18:50 50.78481 6.32971 22495 ft 427 kts 41°
2026-05-07 18:50 50.80673 6.36180 22954 ft 430 kts 41°
2026-05-07 18:50 50.82841 6.39358 23399 ft 433 kts 41°
2026-05-07 18:51 50.85108 6.42679 23809 ft 436 kts 41°
2026-05-07 18:51 50.87319 6.45914 24166 ft 438 kts 41°
2026-05-07 18:51 50.89527 6.49143 24516 ft 440 kts 41°
2026-05-07 18:51 50.91802 6.52476 24873 ft 443 kts 41°
2026-05-07 18:52 50.94063 6.55789 25226 ft 445 kts 41°
2026-05-07 18:52 50.96333 6.59120 25579 ft 448 kts 41°
2026-05-07 18:52 50.98619 6.62483 25930 ft 450 kts 42°
2026-05-07 18:52 51.00951 6.65926 26323 ft 451 kts 42°
2026-05-07 18:53 51.03062 6.69518 26644 ft 454 kts 51°
2026-05-07 18:53 51.04983 6.73537 26969 ft 457 kts 52°
2026-05-07 18:53 51.06880 6.77540 27281 ft 459 kts 52°
2026-05-07 18:53 51.08803 6.81605 27598 ft 461 kts 52°
2026-05-07 18:54 51.10736 6.85688 27899 ft 463 kts 52°
2026-05-07 18:54 51.12675 6.89787 28205 ft 465 kts 52°
2026-05-07 18:54 51.14623 6.93916 28503 ft 467 kts 52°
2026-05-07 18:54 51.16593 6.98102 28791 ft 469 kts 52°
2026-05-07 18:55 51.18529 7.02222 29083 ft 471 kts 52°
2026-05-07 18:55 51.20496 7.06410 29486 ft 471 kts 52°
2026-05-07 18:55 51.22453 7.10581 29919 ft 470 kts 52°
2026-05-07 18:55 51.24410 7.14763 30305 ft 469 kts 52°
2026-05-07 18:56 51.26356 7.18927 30692 ft 467 kts 52°
2026-05-07 18:56 51.28268 7.23027 31098 ft 464 kts 52°
2026-05-07 18:56 51.30197 7.27167 31459 ft 463 kts 52°
2026-05-07 18:56 51.32120 7.31299 31823 ft 463 kts 53°
2026-05-07 18:57 51.34039 7.35432 32160 ft 462 kts 53°
2026-05-07 18:57 51.35945 7.39558 32509 ft 462 kts 54°
2026-05-07 18:57 51.37612 7.43946 32834 ft 461 kts 63°
2026-05-07 18:57 51.39005 7.48566 33181 ft 461 kts 64°
2026-05-07 18:58 51.40390 7.53182 33506 ft 460 kts 64°
2026-05-07 18:58 51.41776 7.57801 33842 ft 460 kts 64°
2026-05-07 18:58 51.43160 7.62423 34163 ft 459 kts 64°
2026-05-07 18:58 51.44538 7.67033 34433 ft 459 kts 64°
2026-05-07 18:59 51.45904 7.71611 34695 ft 459 kts 64°
2026-05-07 18:59 51.47278 7.76223 34972 ft 459 kts 64°
2026-05-07 18:59 51.48654 7.80857 35067 ft 460 kts 64°
2026-05-07 19:00 51.51409 7.90153 35090 ft 462 kts 64°
2026-05-07 19:00 51.54161 7.99482 35103 ft 462 kts 64°
2026-05-07 19:01 51.56905 8.08826 35102 ft 462 kts 64°
2026-05-07 19:01 51.59632 8.18132 35109 ft 462 kts 65°
2026-05-07 19:02 51.62365 8.27495 35118 ft 462 kts 64°
2026-05-07 19:02 51.65076 8.36847 35124 ft 461 kts 64°
2026-05-07 19:03 51.67775 8.46189 35123 ft 460 kts 64°
2026-05-07 19:03 51.70477 8.55543 35120 ft 460 kts 64°
2026-05-07 19:04 51.73165 8.64895 35124 ft 460 kts 65°
2026-05-07 19:04 51.75814 8.74166 35122 ft 459 kts 65°
2026-05-07 19:05 51.78478 8.83533 35123 ft 459 kts 65°
2026-05-07 19:05 51.81129 8.92901 35122 ft 458 kts 65°
2026-05-07 19:06 51.83795 9.02331 35122 ft 458 kts 65°
2026-05-07 19:06 51.87748 9.16391 35118 ft 458 kts 65°
2026-05-07 19:07 51.90764 9.25419 35107 ft 457 kts 59°
2026-05-07 19:07 51.93921 9.34214 35111 ft 457 kts 59°
2026-05-07 19:08 51.97043 9.42952 35112 ft 457 kts 59°
2026-05-07 19:08 51.99689 9.50371 35114 ft 457 kts 59°
2026-05-07 19:09 52.03232 9.60361 34792 ft 455 kts 59°
2026-05-07 19:09 52.04826 9.64864 34128 ft 455 kts 59°
2026-05-07 19:09 52.06386 9.69271 33349 ft 454 kts 59°
2026-05-07 19:10 52.07939 9.73668 32546 ft 454 kts 59°
2026-05-07 19:10 52.09510 9.78129 31679 ft 456 kts 59°
2026-05-07 19:10 52.11081 9.82602 30812 ft 457 kts 59°
2026-05-07 19:10 52.12661 9.87112 29891 ft 459 kts 59°
2026-05-07 19:11 52.14243 9.91627 28885 ft 459 kts 59°
2026-05-07 19:11 52.15829 9.96154 27844 ft 462 kts 59°
2026-05-07 19:11 52.16874 9.99137 27443 ft 463 kts 59°
2026-05-07 19:11 52.19002 10.05233 27112 ft 463 kts 60°
2026-05-07 19:12 52.20032 10.08191 27093 ft 463 kts 60°
2026-05-07 19:12 52.21618 10.12757 27121 ft 464 kts 60°
2026-05-07 19:12 52.23206 10.17342 27123 ft 464 kts 60°
2026-05-07 19:12 52.24787 10.21921 27121 ft 464 kts 60°
2026-05-07 19:13 52.26371 10.26514 27119 ft 464 kts 60°
2026-05-07 19:13 52.27937 10.31056 26583 ft 458 kts 60°
2026-05-07 19:13 52.29494 10.35576 25791 ft 454 kts 60°
2026-05-07 19:13 52.31053 10.40113 25292 ft 453 kts 60°
2026-05-07 19:14 52.32579 10.44558 25096 ft 453 kts 60°
2026-05-07 19:14 52.34116 10.49042 25105 ft 452 kts 60°
2026-05-07 19:14 52.35651 10.53533 25112 ft 452 kts 60°
2026-05-07 19:14 52.37179 10.58025 25112 ft 452 kts 60°
2026-05-07 19:15 52.38701 10.62504 25112 ft 452 kts 60°
2026-05-07 19:15 52.40228 10.66998 25113 ft 452 kts 60°
2026-05-07 19:15 52.41751 10.71489 25113 ft 452 kts 60°
2026-05-07 19:15 52.43279 10.76002 25115 ft 452 kts 60°
2026-05-07 19:16 52.44789 10.80467 25112 ft 442 kts 60°
2026-05-07 19:16 52.46265 10.84835 25117 ft 438 kts 60°
2026-05-07 19:16 52.47737 10.89194 25115 ft 436 kts 60°
2026-05-07 19:16 52.49202 10.93553 25118 ft 436 kts 60°
2026-05-07 19:17 52.50666 10.97918 25122 ft 436 kts 60°
2026-05-07 19:17 52.52112 11.02234 25120 ft 436 kts 60°
2026-05-07 19:17 52.53456 11.06693 25117 ft 436 kts 68°
2026-05-07 19:17 52.54371 11.11429 25118 ft 436 kts 77°
2026-05-07 19:18 52.54812 11.16286 25112 ft 436 kts 87°
2026-05-07 19:18 52.54619 11.21266 24451 ft 439 kts 100°
2026-05-07 19:18 52.54003 11.26203 23625 ft 440 kts 102°
2026-05-07 19:18 52.53359 11.31036 22832 ft 437 kts 102°
2026-05-07 19:19 52.52703 11.35890 22126 ft 433 kts 102°
2026-05-07 19:19 52.52046 11.40697 21468 ft 429 kts 103°
2026-05-07 19:19 52.51390 11.45457 20819 ft 425 kts 103°
2026-05-07 19:19 52.50738 11.50168 20180 ft 421 kts 103°
2026-05-07 19:20 52.50090 11.54845 19566 ft 418 kts 103°
2026-05-07 19:20 52.49449 11.59485 18923 ft 416 kts 103°
2026-05-07 19:20 52.48808 11.64100 18305 ft 413 kts 103°
2026-05-07 19:20 52.48168 11.68690 17652 ft 410 kts 103°
2026-05-07 19:21 52.47534 11.73213 17049 ft 406 kts 103°
2026-05-07 19:21 52.46904 11.77700 16468 ft 402 kts 103°
2026-05-07 19:21 52.46281 11.82133 15894 ft 398 kts 103°
2026-05-07 19:21 52.45660 11.86541 15350 ft 394 kts 103°
2026-05-07 19:22 52.45050 11.90850 14813 ft 391 kts 103°
2026-05-07 19:22 52.44436 11.95169 14289 ft 387 kts 103°
2026-05-07 19:22 52.43838 11.99442 13755 ft 384 kts 103°
2026-05-07 19:22 52.43240 12.03690 13200 ft 379 kts 103°
2026-05-07 19:23 52.42636 12.07875 12656 ft 375 kts 103°
2026-05-07 19:23 52.42043 12.12005 12089 ft 371 kts 102°
2026-05-07 19:23 52.41457 12.16098 11515 ft 368 kts 103°
2026-05-07 19:23 52.40872 12.20157 10932 ft 364 kts 103°
2026-05-07 19:24 52.40290 12.24179 10377 ft 361 kts 103°
2026-05-07 19:24 52.39712 12.28173 10132 ft 360 kts 103°
2026-05-07 19:24 52.39144 12.32064 10096 ft 342 kts 103°
2026-05-07 19:24 52.38606 12.35744 10101 ft 323 kts 103°
2026-05-07 19:25 52.38095 12.39221 10097 ft 306 kts 103°
2026-05-07 19:25 52.37608 12.42518 10103 ft 293 kts 103°
2026-05-07 19:25 52.37132 12.45738 10101 ft 290 kts 103°
2026-05-07 19:25 52.36638 12.49097 10105 ft 321 kts 103°
2026-05-07 19:26 52.36098 12.52773 10109 ft 340 kts 103°
2026-05-07 19:26 52.35541 12.56566 10102 ft 344 kts 103°
2026-05-07 19:26 52.34978 12.60379 10096 ft 345 kts 103°
2026-05-07 19:26 52.34412 12.64188 10106 ft 345 kts 103°
2026-05-07 19:27 52.33844 12.68006 10054 ft 343 kts 103°
2026-05-07 19:27 52.33281 12.71769 9503 ft 340 kts 103°
2026-05-07 19:27 52.32719 12.75504 8951 ft 337 kts 103°
2026-05-07 19:27 52.32162 12.79203 8418 ft 333 kts 103°
2026-05-07 19:28 52.31610 12.82857 7896 ft 330 kts 103°
2026-05-07 19:28 52.31066 12.86436 7694 ft 317 kts 103°
2026-05-07 19:28 52.30549 12.89849 7566 ft 303 kts 103°
2026-05-07 19:28 52.30053 12.93135 7292 ft 295 kts 103°
2026-05-07 19:29 52.29567 12.96372 6918 ft 292 kts 103°
2026-05-07 19:29 52.29084 12.99566 6525 ft 289 kts 102°
2026-05-07 19:29 52.28598 13.02748 6014 ft 289 kts 102°
2026-05-07 19:29 52.28109 13.05925 5486 ft 286 kts 103°
2026-05-07 19:30 52.27633 13.09012 4978 ft 274 kts 102°
2026-05-07 19:30 52.27178 13.11974 4454 ft 264 kts 102°
2026-05-07 19:30 52.27019 13.14863 3941 ft 251 kts 80°
2026-05-07 19:30 52.27525 13.17521 3424 ft 241 kts 68°
2026-05-07 19:31 52.28131 13.20026 3048 ft 229 kts 68°
2026-05-07 19:31 52.28679 13.22303 2991 ft 200 kts 68°
2026-05-07 19:31 52.29151 13.24286 3012 ft 178 kts 68°
2026-05-07 19:31 52.29587 13.26123 2868 ft 170 kts 68°
2026-05-07 19:32 52.30012 13.27902 2663 ft 166 kts 68°
2026-05-07 19:32 52.30430 13.29645 2474 ft 163 kts 68°
2026-05-07 19:32 52.30844 13.31374 2236 ft 163 kts 68°
2026-05-07 19:32 52.31258 13.33100 2009 ft 162 kts 68°
2026-05-07 19:33 52.31649 13.34731 1782 ft 145 kts 67°
2026-05-07 19:33 52.31998 13.36192 1584 ft 133 kts 68°
2026-05-07 19:33 52.32330 13.37576 1411 ft 129 kts 68°
2026-05-07 19:33 52.32651 13.38917 1240 ft 128 kts 67°
2026-05-07 19:34 52.32974 13.40269 1059 ft 128 kts 67°
2026-05-07 19:34 52.33301 13.41638 879 ft 130 kts 67°
2026-05-07 19:34 52.33623 13.42986 698 ft 132 kts 68°
2026-05-07 19:34 52.33961 13.44401 518 ft 135 kts 67°
2026-05-07 19:35 52.34309 13.45855 335 ft 137 kts 68°
2026-05-07 19:35 52.34643 13.47278 163 ft 135 kts 68°
2026-05-07 19:35 52.34965 13.48622 156 ft 125 kts 69°
2026-05-07 19:35 52.35186 13.49551 154 ft 48 kts 68°
2026-05-07 19:36 52.35332 13.49933 154 ft 37 kts 42°
2026-05-07 19:36 52.35516 13.50177 154 ft 32 kts 39°
2026-05-07 19:36 52.35626 13.50398 154 ft 22 kts 71°
2026-05-07 19:36 52.35673 13.50599 154 ft 6 kts 71°
2026-05-07 19:37 52.35674 13.50605 154 ft 2 kts 71°
2026-05-07 19:37 52.35695 13.50705 154 ft 15 kts 69°
2026-05-07 19:37 52.35730 13.50811 154 ft 16 kts 39°
2026-05-07 19:37 52.35852 13.50775 154 ft 17 kts 336°
2026-05-07 19:38 52.35967 13.50702 155 ft 22 kts 339°
2026-05-07 19:38 52.36051 13.50652 154 ft 7 kts 356°
2026-05-07 19:38 52.36078 13.50736 155 ft 7 kts 76°
2026-05-07 19:38 52.36087 13.50784 155 ft 4 kts 69°
2026-05-07 19:39 52.36089 13.50790 155 ft 0 kts 69°